STARLINK-1487, 45758

Orbit data source: Space-Track

STARLINK-1487, 45758 is a payload satellite owned by SpaceX/Seattle (US) in LEO that was launched on Sat, 13 Jun 2020 UTC via an FALCON 9 launch vehicle from the Air Force Eastern Test Range (AFETR). Payload-class satellites include a variety of spacecraft equipped with specific instruments for various scientific and technological missions. These include communications satellites like Starlink; space stations such as the ISS; scientific satellites like the Hubble; Earth observation satellites from companies like Planet Labs, Umbra, and HawkEye 360; GPS; miniature CubeSats for education and research; and military/defense satellites.

Loading next visibility...
Identifier
45758, 2020-038AE
Orbit
LEO
Last TLE update
12 hours ago
Origin
Manufacturer
SpaceX/Seattle
Mission
Partially operational Commercial Communications
Bus & Motor
STARLINK, Unknown motor
Mass
260 kg wet, ~248 kg dry
Launch date (UTC)
2020-06-13 (5 years ago)
Launch vehicle
FALCON 9
Launch site
Air Force Eastern Test Range (AFETR)
Object type
Payload
Rocket body
Debris
Shape & HBR
Box + 1 Pan, 8.86 m
Radar Cross Section
13.562 m², Large (>1 m²)

Expand to show TLE details & history

TLE from 12 hours ago
0 STARLINK-1487
1 45758U 20038AE  25181.90763931  .00111350  00000-0  53715-3 0  9992
2 45758  53.0198  90.7522 0003000  66.2384 293.8951 15.81784942280998
Epoch: 2025-06-30T21:47Z
TLE epoch observation values (Epoch: 2025-06-30T21:47:00.036Z)
Latitude
-0.00007°
Longitude
-155.20871°
Altitude
325.483 km
Speed
7.715 km/s
True Right ascension
06h 03m 00s
True Declination
0° 00' 00"
Sunlit
Object was in daylight at epoch
Visualization orbit readout
Latitude
-44.72855°
Longitude
154.42209°
Altitude
341.428 km
Speed
7.703 km/s
Apparent Right ascension
06h 02m 49s
Apparent Declination
-54° 23' 24"
Sunlit
Object is in daylight
Visualization observer readout
Local Sidereal Time
21:17:36
Azimuth
130.754° SE
Elevation
-54.73°
Doppler factor
1
Orbital elements
Apogee altitude
327.689 km
Perigee altitude
323.667 km
Semi-major axis
6,703.815 km
Eccentricity
0.0003
Inclination
53.0198°
RAAN
90.7522°
Arg. of periapsis
66.2384°
True anomaly
Unknown
Mean anomaly
293.8951°
Eccentric anomaly
Unknown
Mean motion
3.95421 °/min
Orbital period
91.04 mins
BSTAR
0.00053715
Loading maneuver chart data...
Loading SW <> Apogee altitude chart data...

STARLINK-1487 Visibility forecast

Observer location: undefined°, undefined°

Span
Click to sort rows by Start time (UTC) header in descending order
Start Az.
Max El. time (UTC)
Max El. Az.
Max El.
End time (UTC)
End Az.
4 mins2025-07-01 20:43:17.560Z235.653° WSW2025-07-01 20:45:17.560Z310.741° NW44.05°2025-07-01 20:47:17.560Z45.74° ENE
5 mins2025-07-02 03:04:17.560Z316.761° NNW2025-07-02 03:07:17.560Z77.203° E37.949°2025-07-02 03:09:17.560Z117.622° SE
|